Weather History for Anaktuvuk Pass, AK

Change the Weather History Date:

Sunday, March 3, 2013

  Actual Average Record
Temperature  
Mean Temperature -10 °F -  
Max Temperature 3 °F 0 °F 28 °F (2003)
Min Temperature -23 °F -13 °F -38 °F (2012)
Degree Days  
Heating Degree Days 75    
Moisture  
Dew Point -13 °F    
Average Humidity 62    
Maximum Humidity 92    
Minimum Humidity 25    
Precipitation  
Precipitation 0.00 in - - ()
Sea Level Pressure  
Sea Level Pressure 30.17 in    
Wind  
Wind Speed 8 mph (South)    
Max Wind Speed 22 mph    
Max Gust Speed 28 mph    
Visibility 9 miles    
Events      
Averages and records for this station are not official NWS values.
T = Trace of Precipitation, MM = Missing Value Source: NWS Daily Summary

Daily Weather History Graph

Daily Weather History Graph

Search for Another Location

Airport:

Trip Planner

Search our weather history database for the weather conditions in past years. The results will help you decide how hot, cold, wet, or windy it might be!

Date:

Astronomy

Mar. 03, 2013 Rise Set
Actual Time 8:16 AM AKST 6:23 PM AKST
Civil Twilight 7:19 AM AKST 7:19 PM AKST
Nautical Twilight 6:15 AM AKST 8:24 PM AKST
Astronomical Twilight 5:06 AM AKST 9:34 PM AKST
Moon 3:41 AM AKST (3/3) 8:05 AM AKST (3/3)
Length of Visible Light 11h 59m
Length of Day
10h 06m
Waning Gibbous, 62% of the Moon is Illuminated
Mar 3
Waning Gibbous
Mar 4
Last Quarter
Mar 11
New
Mar 19
First Quarter
Mar 27
Full

Hourly Weather History & Observations

Time (AKST) Temp. Windchill Dew Point Humidity Pressure Visibility Wind Dir Wind Speed Gust Speed Precip Events Conditions
12:16 AM -20.2 °F -33.5 °F -29.2 °F 63% 30.11 in 10.0 mi North 4.6 mph - N/A   Mostly Cloudy
12:36 AM -20.2 °F -30.9 °F -29.2 °F 63% 30.11 in 10.0 mi North 3.5 mph - N/A   Mostly Cloudy
12:56 AM -20.2 °F -30.9 °F -29.2 °F 63% 30.11 in 10.0 mi North 3.5 mph - N/A   Scattered Clouds
1:16 AM -20.2 °F -33.5 °F - N/A% 30.11 in 10.0 mi North 4.6 mph - N/A   Partly Cloudy
1:36 AM -20.2 °F - -29.2 °F 63% 30.11 in 10.0 mi Calm Calm - N/A   Clear
1:56 AM -20.2 °F -33.5 °F - N/A% 30.11 in 9.0 mi North 4.6 mph - N/A   Clear
2:16 AM -20.2 °F -33.5 °F -27.4 °F 69% 30.12 in 9.0 mi North 4.6 mph - N/A   Clear
2:36 AM -20.2 °F -30.9 °F - N/A% 30.12 in 10.0 mi North 3.5 mph - N/A   Clear
2:56 AM -22.0 °F - - N/A% 30.12 in 10.0 mi Calm Calm - N/A   Clear
3:16 AM -22.0 °F -33.0 °F - N/A% 30.13 in 10.0 mi North 3.5 mph - N/A   Clear
3:36 AM -22.0 °F -33.0 °F - N/A% 30.13 in 10.0 mi North 3.5 mph - N/A   Clear
3:56 AM -20.2 °F - -29.2 °F 63% 30.13 in 10.0 mi Calm Calm - N/A   Clear
4:16 AM -23.8 °F - - N/A% 30.13 in 10.0 mi Calm Calm - N/A   Clear
4:36 AM -20.2 °F -30.9 °F - N/A% 30.13 in 10.0 mi North 3.5 mph - N/A   Clear
4:56 AM -23.8 °F -35.0 °F - N/A% 30.13 in 10.0 mi NNE 3.5 mph - N/A   Clear
5:16 AM -23.8 °F -35.0 °F - N/A% 30.13 in 10.0 mi North 3.5 mph - N/A   Clear
5:36 AM -23.8 °F - - N/A% 30.13 in 10.0 mi Calm Calm - N/A   Clear
5:56 AM -23.8 °F - - N/A% 30.12 in 10.0 mi Calm Calm - N/A   Clear
6:16 AM -23.8 °F -35.0 °F - N/A% 30.13 in 10.0 mi NE 3.5 mph - N/A   Clear
6:36 AM -22.0 °F - - N/A% 30.13 in 10.0 mi Calm Calm - N/A   Clear
6:56 AM -22.0 °F - - N/A% 30.13 in 10.0 mi Calm Calm - N/A   Clear
7:16 AM -22.0 °F - - N/A% 30.13 in 10.0 mi Calm Calm - N/A   Clear
7:36 AM -20.2 °F - - N/A% 30.14 in 10.0 mi Calm Calm - N/A   Clear
7:56 AM -20.2 °F -37.3 °F - N/A% 30.14 in 7.0 mi SW 6.9 mph - N/A   Clear
8:16 AM -11.2 °F -29.0 °F -16.6 °F 77% 30.14 in 1.5 mi SSW 9.2 mph - N/A   Clear
8:36 AM -7.6 °F -28.3 °F -16.6 °F 65% 30.13 in 7.0 mi South 13.8 mph - N/A   Clear
8:56 AM -7.6 °F -23.4 °F -18.4 °F 59% 30.14 in 9.0 mi SSW 8.1 mph - N/A   Clear
9:16 AM -5.8 °F -24.4 °F -11.2 °F 77% 30.14 in 10.0 mi SSW 11.5 mph - N/A   Clear
9:36 AM -5.8 °F -21.2 °F -18.4 °F 55% 30.15 in 9.0 mi SSW 8.1 mph - N/A   Clear
9:56 AM -7.6 °F -22.1 °F -14.8 °F 71% 30.15 in 6.0 mi SSW 6.9 mph - N/A   Clear
10:16 AM -5.8 °F -24.4 °F -14.8 °F 65% 30.15 in 10.0 mi South 11.5 mph - N/A   Clear
10:36 AM -4.0 °F -17.8 °F -13.0 °F 65% 30.15 in 10.0 mi SSW 6.9 mph - N/A   Clear
10:56 AM -4.0 °F -25.8 °F -9.4 °F 78% 30.16 in 5.0 mi South 17.3 mph - N/A   Clear
11:16 AM -0.4 °F -21.2 °F -5.8 °F 78% 30.16 in 6.0 mi South 17.3 mph - N/A   Clear
11:36 AM -2.2 °F -20.7 °F -11.2 °F 66% 30.16 in 7.0 mi South 12.7 mph - N/A   Clear
11:56 AM -0.4 °F -19.9 °F -5.8 °F 78% 30.16 in 1.0 mi South 15.0 mph 20.7 mph N/A   Clear
12:16 PM -0.4 °F -18.4 °F -9.4 °F 66% 30.17 in 10.0 mi SSW 12.7 mph - N/A   Clear
12:36 PM -0.4 °F -21.2 °F -9.4 °F 66% 30.18 in 3.0 mi South 17.3 mph - N/A   Clear
12:56 PM 1.4 °F -19.9 °F -0.4 °F 92% 30.17 in 0.8 mi South 19.6 mph - N/A   Unknown
1:16 PM 1.4 °F -20.5 °F -5.8 °F 72% 30.17 in 8.0 mi South 20.7 mph - N/A   Clear
1:36 PM 1.4 °F -19.4 °F -5.8 °F 72% 30.17 in 8.0 mi South 18.4 mph - N/A   Clear
1:56 PM 1.4 °F -19.4 °F -11.2 °F 56% 30.18 in 10.0 mi South 18.4 mph - N/A   Clear
2:16 PM 1.4 °F -18.2 °F -0.4 °F 92% 30.19 in 10.0 mi South 16.1 mph - N/A   Clear
2:36 PM 3.2 °F -16.5 °F -5.8 °F 66% 30.19 in 7.0 mi SSW 17.3 mph - N/A   Clear
2:56 PM 3.2 °F -15.9 °F -25.6 °F 25% 30.19 in 8.0 mi SSW 16.1 mph 23.0 mph N/A   Clear
3:16 PM 3.2 °F -18.6 °F -25.6 °F 25% 30.18 in 2.5 mi SSW 21.9 mph 27.6 mph N/A   Clear
3:36 PM 3.2 °F -16.5 °F -22.0 °F 30% 30.18 in 3.0 mi SSW 17.3 mph 27.6 mph N/A   Clear
3:56 PM 1.4 °F -19.4 °F -23.8 °F 30% 30.18 in 8.0 mi South 18.4 mph - N/A   Clear
4:16 PM 3.2 °F -17.6 °F -20.2 °F 33% 30.18 in 10.0 mi South 19.6 mph - N/A   Clear
4:36 PM 1.4 °F -18.2 °F -18.4 °F 39% 30.19 in 10.0 mi South 16.1 mph - N/A   Clear
4:56 PM 3.2 °F -15.9 °F -16.6 °F 39% 30.19 in 10.0 mi South 16.1 mph - N/A   Clear
5:16 PM 3.2 °F -15.3 °F -14.8 °F 43% 30.20 in 10.0 mi SSE 15.0 mph - N/A   Clear
5:36 PM 3.2 °F -15.3 °F -13.0 °F 47% 30.21 in 10.0 mi South 15.0 mph - N/A   Clear
5:56 PM 1.4 °F -16.9 °F -13.0 °F 51% 30.20 in 10.0 mi South 13.8 mph - N/A   Clear
6:16 PM 1.4 °F -16.9 °F -11.2 °F 56% 30.21 in 10.0 mi SSE 13.8 mph - N/A   Clear
6:36 PM 3.2 °F -11.3 °F -5.8 °F 66% 30.23 in 10.0 mi SSE 9.2 mph 23.0 mph N/A   Clear
6:56 PM 3.2 °F -13.1 °F -11.2 °F 51% 30.23 in 10.0 mi South 11.5 mph - N/A   Clear
7:16 PM 1.4 °F -17.6 °F -5.8 °F 72% 30.22 in 10.0 mi SSW 15.0 mph 19.6 mph N/A   Clear
7:36 PM 3.2 °F -17.1 °F -5.8 °F 66% 30.22 in 10.0 mi SSW 18.4 mph - N/A   Clear
7:56 PM 1.4 °F -18.8 °F -7.6 °F 66% 30.22 in 10.0 mi South 17.3 mph - N/A   Clear
8:16 PM 1.4 °F -17.6 °F -5.8 °F 72% 30.23 in 10.0 mi South 15.0 mph - N/A   Clear
8:36 PM 1.4 °F -16.9 °F -9.4 °F 61% 30.23 in 10.0 mi South 13.8 mph - N/A   Clear
8:56 PM 1.4 °F -18.2 °F -7.6 °F 66% 30.23 in 10.0 mi South 16.1 mph - N/A   Clear
9:16 PM -0.4 °F -19.9 °F -9.4 °F 66% 30.23 in 10.0 mi South 15.0 mph - N/A   Clear
9:36 PM 1.4 °F -17.6 °F -5.8 °F 72% 30.23 in 10.0 mi South 15.0 mph - N/A   Clear
9:56 PM 1.4 °F -18.8 °F -7.6 °F 66% 30.23 in 10.0 mi South 17.3 mph - N/A   Clear
10:16 PM -0.4 °F -20.5 °F -13.0 °F 55% 30.24 in 10.0 mi South 16.1 mph - N/A   Clear
10:36 PM 1.4 °F -18.8 °F -5.8 °F 72% 30.24 in 10.0 mi South 17.3 mph - N/A   Clear
10:56 PM -0.4 °F -20.5 °F -11.2 °F 60% 30.25 in 10.0 mi South 16.1 mph - N/A   Clear
11:16 PM 1.4 °F -18.2 °F -4.0 °F 78% 30.25 in 10.0 mi South 16.1 mph - N/A   Clear
11:36 PM 1.4 °F -18.2 °F -5.8 °F 72% 30.25 in 10.0 mi South 16.1 mph - N/A   Clear
11:56 PM -0.4 °F -18.4 °F -11.2 °F 60% 30.26 in 10.0 mi South 12.7 mph - N/A   Clear